TimeMST,TemperatureF,Dew PointF,Humidity,Sea Level PressureIn,VisibilityMPH,Wind Direction,Wind SpeedMPH,Gust SpeedMPH,PrecipitationIn,Events,Conditions,WindDirDegrees,DateUTC
12:53 AM,42.1,30.0,62,29.82,10.0,South,4.6,-,N/A,,Mostly Cloudy,190,2012-11-21 07:53:00
1:53 AM,43.0,30.0,60,29.75,10.0,South,4.6,-,N/A,,Mostly Cloudy,180,2012-11-21 08:53:00
2:53 AM,44.1,30.0,58,29.71,10.0,South,11.5,-,N/A,,Scattered Clouds,180,2012-11-21 09:53:00
3:53 AM,44.1,30.9,60,29.70,10.0,South,18.4,27.6,N/A,,Overcast,180,2012-11-21 10:53:00
4:53 AM,43.0,32.0,65,29.67,10.0,South,15.0,24.2,0.00,,Scattered Clouds,190,2012-11-21 11:53:00
5:53 AM,44.1,32.0,63,29.66,10.0,South,12.7,-,N/A,,Partly Cloudy,180,2012-11-21 12:53:00
6:53 AM,37.0,32.0,82,29.70,10.0,NW,13.8,-,N/A,,Overcast,320,2012-11-21 13:53:00
7:20 AM,35.6,33.8,93,29.73,10.0,NNE,4.6,-,N/A,,Overcast,30,2012-11-21 14:20:00
7:31 AM,33.8,33.8,100,29.73,10.0,NNW,12.7,-,N/A,,Overcast,330,2012-11-21 14:31:00
7:53 AM,34.0,33.1,96,29.74,3.0,North,4.6,-,N/A,,Overcast,360,2012-11-21 14:53:00
8:53 AM,33.8,32.0,93,29.78,2.5,NW,13.8,19.6,N/A,Rain,Light Rain,310,2012-11-21 15:53:00
8:58 AM,33.8,32.0,93,29.79,1.0,NW,11.5,-,0.02,Snow,Light Snow,320,2012-11-21 15:58:00
9:21 AM,33.8,32.0,93,29.78,1.2,NNE,5.8,-,0.04,Snow,Light Snow,20,2012-11-21 16:21:00
9:26 AM,33.8,32.0,93,29.78,2.0,North,5.8,-,0.04,Snow,Light Snow,10,2012-11-21 16:26:00
9:35 AM,33.8,32.0,93,29.78,4.0,Calm,Calm,-,0.04,Snow,Light Snow,0,2012-11-21 16:35:00
9:53 AM,35.1,32.0,89,29.76,10.0,NW,4.6,-,0.04,,Overcast,310,2012-11-21 16:53:00
10:06 AM,35.6,33.8,93,29.77,10.0,Calm,Calm,-,0.00,Rain,Light Rain,0,2012-11-21 17:06:00
10:16 AM,35.6,33.8,93,29.77,5.0,Calm,Calm,-,0.01,Rain,Light Rain,0,2012-11-21 17:16:00
10:51 AM,39.2,35.6,87,29.76,10.0,Calm,Calm,-,0.02,,Mostly Cloudy,0,2012-11-21 17:51:00
10:53 AM,39.9,35.1,83,29.74,10.0,Calm,Calm,-,0.02,,Mostly Cloudy,0,2012-11-21 17:53:00
11:08 AM,39.2,33.8,81,29.75,10.0,NNE,5.8,-,0.00,Rain,Light Rain,20,2012-11-21 18:08:00
11:34 AM,35.6,33.8,93,29.78,2.5,NW,5.8,-,0.01,Rain,Light Rain,310,2012-11-21 18:34:00
11:38 AM,35.6,33.8,93,29.77,0.8,WNW,9.2,-,0.05,Rain,Heavy Rain,290,2012-11-21 18:38:00
11:45 AM,33.8,32.0,93,29.78,0.8,NNW,6.9,-,0.07,Snow,Light Snow,340,2012-11-21 18:45:00
11:53 AM,33.1,32.0,96,29.79,0.5,NNE,4.6,-,0.09,Fog-Snow,Snow,30,2012-11-21 18:53:00
12:01 PM,33.8,32.0,93,29.78,2.0,NE,5.8,-,0.00,Snow,Light Snow,50,2012-11-21 19:01:00
12:04 PM,33.8,32.0,93,29.78,4.0,NE,6.9,-,0.00,Snow,Light Snow,40,2012-11-21 19:04:00
12:14 PM,33.8,32.0,93,29.77,1.8,Variable,4.6,-,0.01,Snow,Light Snow,0,2012-11-21 19:14:00
12:20 PM,33.8,32.0,93,29.76,0.8,East,3.5,-,0.02,Snow,Light Snow,80,2012-11-21 19:20:00
12:32 PM,33.8,32.0,93,29.75,1.0,Calm,Calm,-,0.03,Snow,Light Snow,0,2012-11-21 19:32:00
12:36 PM,33.8,32.0,93,29.75,3.0,ENE,5.8,-,0.03,Snow,Light Snow,60,2012-11-21 19:36:00
12:50 PM,35.6,32.0,87,29.75,10.0,Calm,Calm,-,0.03,,Overcast,0,2012-11-21 19:50:00
12:53 PM,36.0,33.1,89,29.75,10.0,Calm,Calm,-,0.03,,Overcast,0,2012-11-21 19:53:00
1:02 PM,37.4,32.0,81,29.74,10.0,Calm,Calm,-,N/A,,Scattered Clouds,0,2012-11-21 20:02:00
1:53 PM,37.0,32.0,82,29.76,10.0,NW,11.5,-,N/A,,Scattered Clouds,320,2012-11-21 20:53:00
2:25 PM,35.6,30.2,81,29.80,2.5,West,13.8,19.6,0.00,Snow,Light Snow,280,2012-11-21 21:25:00
2:34 PM,35.6,28.4,75,29.79,1.5,WNW,12.7,-,0.00,Snow,Light Snow,290,2012-11-21 21:34:00
2:53 PM,34.0,30.0,85,29.81,0.8,NW,11.5,-,0.00,Snow,Light Snow,310,2012-11-21 21:53:00
3:10 PM,33.8,28.4,81,29.82,2.0,WNW,16.1,24.2,0.00,Snow,Light Snow,300,2012-11-21 22:10:00
3:17 PM,33.8,26.6,75,29.83,6.0,WNW,13.8,25.3,0.00,Snow,Light Snow,290,2012-11-21 22:17:00
3:32 PM,33.8,26.6,75,29.84,3.0,WNW,15.0,24.2,0.00,Snow,Light Snow,290,2012-11-21 22:32:00
3:35 PM,32.0,26.6,80,29.85,1.8,WNW,15.0,24.2,0.00,Snow,Light Snow,290,2012-11-21 22:35:00
3:45 PM,32.0,26.6,80,29.86,3.0,NW,11.5,-,0.00,Snow,Light Snow,310,2012-11-21 22:45:00
3:53 PM,32.0,26.1,79,29.88,6.0,WNW,8.1,-,0.00,,Haze,300,2012-11-21 22:53:00
4:02 PM,32.0,26.6,80,29.87,1.8,NW,10.4,-,0.00,Snow,Light Snow,320,2012-11-21 23:02:00
4:15 PM,30.2,26.6,86,29.87,3.0,North,4.6,-,0.00,Snow,Light Snow,10,2012-11-21 23:15:00
4:53 PM,32.0,25.0,75,29.90,10.0,NNW,3.5,-,0.00,,Overcast,330,2012-11-21 23:53:00
5:53 PM,30.9,26.1,82,29.90,10.0,NNW,5.8,-,N/A,,Partly Cloudy,330,2012-11-22 00:53:00
6:53 PM,30.9,17.1,57,29.97,10.0,West,12.7,18.4,N/A,,Partly Cloudy,270,2012-11-22 01:53:00
7:53 PM,28.9,19.9,69,30.04,10.0,Calm,Calm,-,N/A,,Mostly Cloudy,0,2012-11-22 02:53:00
8:53 PM,28.0,19.9,72,30.05,10.0,South,3.5,-,N/A,,Mostly Cloudy,180,2012-11-22 03:53:00
9:53 PM,28.0,17.1,63,30.07,10.0,Calm,Calm,-,N/A,,Mostly Cloudy,0,2012-11-22 04:53:00
10:53 PM,26.1,17.1,69,30.08,10.0,WSW,4.6,-,N/A,,Scattered Clouds,250,2012-11-22 05:53:00
11:53 PM,26.1,17.1,69,30.09,10.0,SSW,8.1,-,N/A,,Clear,200,2012-11-22 06:53:00